Regional Weather Roundup
Issued by NWS Jackson, KY

Home | Current Version | Previous Version | Graphics & Text | Print | Product List | Glossary Off
Versions: 1 2 3 4 5 6 7 8 9 10 11 12 13 14 15 16 17 18 19 20 21 22 23 24 25 26 27 28 29 30 31 32 33 34 35 36 37 38 39 40 41 42 43 44 45 46 47 48 49 50

000
ASUS43 KJKL 010510
RWRJKL

EAST KENTUCKY HOURLY WEATHER ROUNDUP
NATIONAL WEATHER SERVICE JACKSON KY
100 AM EDT WED JUL 01 2015

NOTE: "FAIR" INDICATES FEW OR NO CLOUDS BELOW 12,000 FEET WITH
NO SIGNIFICANT WEATHER AND/OR OBSTRUCTIONS TO VISIBILITY.

* THESE REPORTS ARE NOT UNDER NWS QUALITY CONTROL AND MAY NOT
  REPORT WEATHER SUCH AS PRECIPITATION AND FOG.

KYZ079-080-083-085-087-088-110-112-115-119-120-010600
...EASTERN KENTUCKY...

CITY           SKY/WX    TMP DP  RH WIND       PRES   REMARKS
SOMERSET*      MOCLDY    66  66 100 CALM      29.96F FOG
MONTICELLO*    CLEAR     66  66 100 CALM      29.99S FOG
MIDDLESBORO*   CLOUDY    66  66 100 CALM      30.00R FOG
HARLAN APT*      N/A     63  61  94 CALM      30.00F
HAZARD APT*    CLEAR     61  61 100 CALM      29.97
BLACK MTN*       N/A     59  54  82 S7          N/A
PIKEVILLE APT* CLEAR     61  59  94 SE5       29.97R
BIG SANDY*     PTCLDY    61  60  96 S5        29.96R
MOREHEAD APT*  CLOUDY    61  59  94 S8        29.95S
$$

KYZ035-036-041-042-044-050-067-078-099-010600
...CENTRAL KENTUCKY...

CITY           SKY/WX    TMP DP  RH WIND       PRES   REMARKS
MT STERLING*   PTCLDY    61  61 100 SW7       29.95F
FLEMING/MASON* PTCLDY    61  59  94 SE5       29.95R
DANVILLE*      PTCLDY    64  61  88 CALM      29.95S
RICHMOND*      PTCLDY    64  59  82 SW5       29.94F
$$

KYZ091>093-OHZ055-061-077-WVZ005-015-034-035-042-010600
...SOUTHERN OHIO/WEST VIRGINIA...

CITY           SKY/WX    TMP DP  RH WIND       PRES   REMARKS
COVINGTON      PTCLDY    64  62  93 SW5       29.89F FOG
DAYTON         PTCLDY    64  62  93 SW6       29.89S FOG
PINEVILLE*     CLOUDY    59  59 100 MISG      30.03R FOG
$$

VAZ002-007-008-TNZ017-027-036-066-071-010600
...SOUTHWEST VIRGINIA/EAST TENNESSEE...

CITY           SKY/WX    TMP DP  RH WIND       PRES   REMARKS
WISE*          CLEAR     59  55  88 SW6       30.04R
JONESVILLE*      N/A    N/A N/A N/A MISG        N/A
ABINGDON*      CLEAR     67  64  91 W5        30.02S
OAK RIDGE      MOCLDY    69  66  90 SW3       30.00S FOG
$$

...KEY TO REMARKS...
VSB - VISIBILITY IN MILES
WCI - WIND CHILL INDEX
HX  - HEAT INDEX

$$


USA.gov is the U.S. government's official web portal to all federal, state and local government web resources and services.